Tracking 19575 objects as of 20-Feb-2019
HD Live streaming from Space Station
objects crossing your sky now

INSAT 3B

Track INSAT 3B now!
INSAT 3B is classified as:


NORAD ID: 26108
Int'l Code: 2000-016B
Perigee: 35,927.2 km
Apogee: 36,002.3 km
Inclination: 5.5 °
Period: 1,444.8 minutes
Semi major axis: 42335 km
RCS: 5.0119 m2 (large)
Launch date: March 21, 2000
Source: India (IND)
Launch site: FRENCH GUIANA (FRGUI)

Voice, data and fax transmissions.
aabbcc
Your satellite tracking list
Your tracking list is empty




NASA's NSSDC Master Catalog

Two Line Element Set (TLE):
1 26108U 00016B   19050.85829175 -.00000249 +00000-0 +00000-0 0  9990
2 26108 005.4578 063.5519 0008868 223.6502 150.9594 00.99664799024780
Source of the keplerian elements: AFSPC